User: anonymous   Login
Location: Montreal
(45.5087°N, 73.5540°W)
Time: 07:51:36
(UTC-05:00)
Language:

AAUSAT CUBESAT 2 - Orbit

View from above orbital plane
View from above orbital plane
View from above satellite
View from above satellite

Ground track
Ground track

The orbit data is extracted from the following two-line orbital elements,

1 32788U 08021F   19049.61475986 +.00000507 +00000-0 +51783-4 0  9998
2 32788 097.5051 070.6156 0010475 238.6773 121.3423 14.94604707586888
Epoch (UTC): 18 February 2019 14:45:15
Eccentricity: 0.0010475
inclination: 97.5051°
perigee height: 576 km
apogee height: 591 km
right ascension of ascending node: 70.6156°
argument of perigee: 238.6773°
revolutions per day: 14.94604707
mean anomaly at epoch: 121.3423°
orbit number at epoch: 58688

The dashed part of the orbit path shows where the satellite is in the earth's shadow,  

DLR